Regional Weather Roundup
Issued by NWS Lake Charles, LA

Home | Current Version | Previous Version | Text Only | Print | Product List | Glossary On
Versions: 1 2 3 4 5 6 7 8 9 10 11 12 13 14 15 16 17 18 19 20 21 22 23 24 25 26 27
000
ASUS44 KLCH 062310
RWRLCH
REGIONAL WEATHER ROUNDUP
NATIONAL WEATHER SERVICE LAKE CHARLES LA
600 PM CDT FRI MAY 06 2016

Note: "fair" indicates few or no clouds below 12,000 feet with no
significant weather and/or obstructions to visibility.


ACROSS SOUTHEAST TEXAS

CITY           SKY/WX    TMP DP  RH WIND       PRES   REMARKS
BEAUMONT       SUNNY     81  56  42 S7        29.99F
BEAUMONT CITY  FAIR      83  49  31 CALM      30.00F
ORANGE         CLEAR     81  44  26 W5        30.01F
JASPER         SUNNY     80  50  35 NW6       30.02F
$$

ACROSS CENTRAL LOUISIANA

CITY           SKY/WX    TMP DP  RH WIND       PRES   REMARKS
LEESVILLE      SUNNY     79  49  35 NE7       30.00S
FULLERTON      FAIR      79  48  33 VRB3      29.98S
ALEXANDRIA INT SUNNY     80  44  27 N7        29.99S
ESLER FIELD    SUNNY     81  45  28 VRB6      30.01S
DERIDDER       FAIR      81  47  31 N6        30.01F
OAKDALE        CLEAR     80  47  32 N3        29.99F
OPELOUSAS      FAIR      77  48  35 NE7       30.00F
$$

ACROSS SOUTHWEST AND SOUTH CENTRAL LOUISIANA

CITY           SKY/WX    TMP DP  RH WIND       PRES   REMARKS
SULPHUR        CLEAR     81  51  35 S5        30.00F
LAKE CHARLES   SUNNY     79  54  41 S8        29.99F
CHENNAULT INT  NOT AVBL
CAMERON PHI    CLEAR     75  55  50 SW7       30.04S
DEQUINCY       FAIR      80  51  35 NW7       30.00F
JENNINGS       FAIR      79  52  38 NW5       30.00F
LAFAYETTE      SUNNY     80  45  28 N8        30.00S
NEW IBERIA     SUNNY     79  47  32 NW12      30.00F
ABBEVILLE      FAIR      77  50  37 NW8       30.00F
PATTERSON      NOT AVBL
SALT POINT       N/A     76  58  53 W6        29.99S
$$

SELECTED SITES ACROSS THE REGION

CITY           SKY/WX    TMP DP  RH WIND       PRES   REMARKS
HOUSTON BUSH   SUNNY     81  49  32 VRB6      29.99F
HOUSTON HOBBY  MOSUNNY   82  48  30 SE6       29.99F
GALVESTON      SUNNY     76  54  46 S10       30.02F
COLLEGE STAT   SUNNY     83  49  30 S7        29.99F
CONROE         SUNNY     82  51  34 SE3       30.00F
HUNTSVILLE     SUNNY     84  49  29 NE5       30.00F
LUFKIN         SUNNY     81  48  31 CALM      30.00F
SHREVEPORT     SUNNY     80  47  31 N8        30.01F
MONROE         SUNNY     77  45  32 N12       30.03F
NATCHEZ MS     SUNNY     73  43  33 N8        30.02F
BATON ROUGE    SUNNY     77  41  27 CALM      30.00S
N.O. INTL ARPT MOSUNNY   76  47  35 N8        29.99S
SLIDELL        SUNNY     76  47  35 N9        29.98S
$$

MARINE REPORTS

STATION/POSITION TIME  SKY/WX   TEMP    WIND        PRES    VSBY
                                AIR SEA DIR/SP/G
                 (UTC)          (F)     (DEG/KT/KT) (MB)    (MI)
BUOY 30 S HIGH I 2250            75 77  190/  8/ 10 1016.3F
WVE H/P(F/S)=  1

SEA RIM ST PARK  2300            76     180/  7/  9 1016.7F
PORT ARTHUR      2200               75              1016.4F
SABINE PASS N    2200            76 77              1017.7F
TEXAS POINT      NOT AVBL
CALCASIEU PASS   2200            74 78              1015.7F
LK CHARLES BEACH 2200            81 74              1016.3F
MARSH ISLAND     2200            74     310/  6/  9   N/A
FRESH WATER LOCK 2200            73 77              1017.0F
AMERADA PASS     2200            75 76              1015.7F
$$




USA.gov is the U.S. government's official web portal to all federal, state and local government web resources and services.